axspace.com alexa rank chart, axspace.com alexa rank daily changes

axspace.com alexa rank chart, axspace.com alexa rank daily changes

axspace.com
Actual rank:
48 156

RANK HISTORY

Date Rank Diff
2017/10/17 48 156 -239
2017/10/16 48 395 -402
2017/10/14 48 797 +53
2017/10/13 48 744 +157
2017/10/12 48 587 +664
2017/10/11 47 923 +63
2017/10/10 47 860 +672
2017/10/09 47 188 +21
2017/10/08 47 167 -614
2017/10/07 47 781 +562
2017/10/06 47 219 +355
2017/10/05 46 864 +535
2017/10/04 46 329 -89
2017/10/03 46 418 -219
2017/10/02 46 637 +91
2017/10/01 46 546 -1 001
2017/09/30 47 547 -530
2017/09/29 48 077 -449
2017/09/28 48 526 +584
2017/09/27 47 942 +112
2017/09/26 47 830 +401
2017/09/25 47 429 +453
2017/09/24 46 976 +599
2017/09/23 46 377 -574
2017/09/22 46 951 -550
2017/09/20 47 501 +287
2017/09/19 47 214 +305
2017/09/18 46 909 +292
2017/09/17 46 617 +335
2017/09/16 46 282 +311
2017/09/15 45 971 +412
2017/09/14 45 559 +102
2017/09/13 45 457 +538
2017/09/12 44 919 +458
2017/09/11 44 461 -384
2017/09/10 44 845 +482
2017/09/09 44 363 +98
2017/09/08 44 265 +601
2017/09/07 43 664 +661
2017/09/06 43 003 +540
2017/09/05 42 463 -267
2017/09/04 42 730 +594
2017/09/03 42 136 -313
2017/09/02 42 449 +56
2017/09/01 42 393 +272
2017/08/31 42 121 +264
2017/08/30 41 857 -80
2017/08/29 41 937 +383
2017/08/28 41 554 +387
2017/08/27 41 167 +240
2017/08/26 40 927 -204
2017/08/25 41 131 +529
2017/08/24 40 602 +200
2017/08/23 40 402 +609
2017/08/22 39 793 -86
2017/08/21 39 879 +70
2017/08/20 39 809 -59
2017/08/19 39 868 -461
2017/08/18 40 329

WIDGET FOR YOUR SITE

DOMAINS WITH THE NEAREST RANK

Domain Rank
maaf.fr 48 151
naisho.asia 48 152
dedecms.com 48 153
firstonetv.watch 48 154
hr.nl 48 155
axspace.com 48 156
majornelson.com 48 157
profils.org 48 158
downloadgamexbox.com 48 159
mhx-wiki.com 48 160
vcharkarn.com 48 161

DOMAINS WITH THE NEAREST RANK BY TLD .com

Domain Rank
dfcfw.com 48 143
mercatox.com 48 146
guitarbackingtrack.com 48 147
sunbasket.com 48 148
dedecms.com 48 153
axspace.com 48 156
majornelson.com 48 157
downloadgamexbox.com 48 159
mhx-wiki.com 48 160
vcharkarn.com 48 161
govoyagin.com 48 162